Time,TemperatureF,DewpointF,PressureIn,WindDirection,WindDirectionDegrees,WindSpeedMPH,WindSpeedGustMPH,Humidity,HourlyPrecipIn,Conditions,Clouds,dailyrainin,SoftwareType,DateUTC
2013-08-03 00:02:00,48.6,31.8,24.05,NW,312,0.0,0.0,26,-99.99,,,-99.99,meteohub,2013-08-03 06:02:00,
2013-08-03 00:07:00,48.4,31.8,24.05,NW,312,0.0,0.0,26,-99.99,,,-99.99,meteohub,2013-08-03 06:07:00,
2013-08-03 00:12:00,48.4,31.8,24.05,NW,312,0.0,0.0,26,-99.99,,,-99.99,meteohub,2013-08-03 06:12:00,
2013-08-03 00:17:00,48.4,31.6,24.05,NE,49,0.0,0.0,26,-99.99,,,-99.99,meteohub,2013-08-03 06:17:00,
2013-08-03 00:22:00,48.4,31.6,24.05,NNE,16,0.0,0.0,26,-99.99,,,-99.99,meteohub,2013-08-03 06:22:00,
2013-08-03 00:27:00,48.0,31.5,24.05,NNE,16,0.0,0.0,26,-99.99,,,-99.99,meteohub,2013-08-03 06:27:00,
2013-08-03 00:33:00,47.8,31.5,24.05,ENE,65,0.0,0.0,26,-99.99,,,-99.99,meteohub,2013-08-03 06:33:00,
2013-08-03 00:38:00,47.8,31.5,24.05,ENE,65,0.0,0.0,26,-99.99,,,-99.99,meteohub,2013-08-03 06:38:00,
2013-08-03 00:43:00,47.8,31.5,24.05,NNE,15,0.0,0.0,26,-99.99,,,-99.99,meteohub,2013-08-03 06:43:00,
2013-08-03 00:48:00,47.5,31.5,24.05,NNE,15,0.0,0.0,26,-99.99,,,-99.99,meteohub,2013-08-03 06:48:00,
2013-08-03 00:54:00,46.9,31.5,24.05,NNE,15,0.0,0.0,26,-99.99,,,-99.99,meteohub,2013-08-03 06:54:00,
2013-08-03 00:59:00,46.9,31.5,24.05,ENE,70,0.0,0.0,26,-99.99,,,-99.99,meteohub,2013-08-03 06:59:00,
2013-08-03 01:04:00,47.3,31.5,24.05,NE,36,0.0,0.0,26,-99.99,,,-99.99,meteohub,2013-08-03 07:04:00,
2013-08-03 01:09:00,46.8,31.5,24.05,NE,35,0.0,0.0,26,-99.99,,,-99.99,meteohub,2013-08-03 07:09:00,
2013-08-03 01:15:00,46.4,31.3,24.05,NE,35,0.0,0.0,26,-99.99,,,-99.99,meteohub,2013-08-03 07:15:00,
2013-08-03 01:20:00,46.2,32.2,24.05,NE,35,0.0,0.0,27,-99.99,,,-99.99,meteohub,2013-08-03 07:20:00,
2013-08-03 01:25:00,45.9,32.2,24.05,NE,35,0.0,0.0,27,-99.99,,,-99.99,meteohub,2013-08-03 07:25:00,
2013-08-03 01:30:00,45.3,32.0,24.05,NE,35,0.0,0.0,27,-99.99,,,-99.99,meteohub,2013-08-03 07:30:00,
2013-08-03 01:35:00,44.8,32.0,24.05,NE,35,0.0,0.0,27,-99.99,,,-99.99,meteohub,2013-08-03 07:35:00,
2013-08-03 01:41:00,44.4,32.0,24.05,WNW,302,3.0,0.0,27,-99.99,,,-99.99,meteohub,2013-08-03 07:41:00,
2013-08-03 01:46:00,43.5,31.8,24.05,NW,306,2.0,4.0,27,-99.99,,,-99.99,meteohub,2013-08-03 07:46:00,
2013-08-03 01:52:00,43.0,31.8,24.05,NW,306,0.0,4.0,27,-99.99,,,-99.99,meteohub,2013-08-03 07:52:00,
2013-08-03 01:57:00,43.2,31.8,24.05,NW,307,0.0,4.0,27,-99.99,,,-99.99,meteohub,2013-08-03 07:57:00,
2013-08-03 02:02:00,43.3,31.8,24.05,NW,307,0.0,4.0,27,-99.99,,,-99.99,meteohub,2013-08-03 08:02:00,
2013-08-03 02:07:00,43.2,31.8,24.05,NW,314,3.0,4.0,27,-99.99,,,-99.99,meteohub,2013-08-03 08:07:00,
2013-08-03 02:12:00,42.6,31.6,24.05,NW,314,0.0,4.0,27,-99.99,,,-99.99,meteohub,2013-08-03 08:12:00,
2013-08-03 02:17:00,42.4,31.6,24.05,NW,314,0.0,4.0,27,-99.99,,,-99.99,meteohub,2013-08-03 08:17:00,
2013-08-03 02:22:00,42.3,31.6,24.05,NW,314,0.0,4.0,27,-99.99,,,-99.99,meteohub,2013-08-03 08:22:00,
2013-08-03 02:27:00,42.1,31.5,24.05,WNW,291,3.0,0.0,27,-99.99,,,-99.99,meteohub,2013-08-03 08:27:00,
2013-08-03 02:32:00,41.0,31.5,24.05,WNW,291,0.0,4.0,27,-99.99,,,-99.99,meteohub,2013-08-03 08:32:00,
2013-08-03 02:37:00,41.0,31.5,24.05,WNW,291,0.0,4.0,27,-99.99,,,-99.99,meteohub,2013-08-03 08:37:00,
2013-08-03 02:42:00,41.0,31.5,24.05,WNW,291,0.0,3.0,27,-99.99,,,-99.99,meteohub,2013-08-03 08:42:00,
2013-08-03 02:47:00,41.0,31.5,24.05,WNW,291,0.0,0.0,27,-99.99,,,-99.99,meteohub,2013-08-03 08:47:00,
2013-08-03 02:53:00,41.4,31.5,24.05,WNW,291,0.0,0.0,27,-99.99,,,-99.99,meteohub,2013-08-03 08:53:00,
2013-08-03 02:58:00,41.2,31.5,24.05,WNW,292,0.0,0.0,27,-99.99,,,-99.99,meteohub,2013-08-03 08:58:00,
2013-08-03 03:03:00,41.0,31.5,24.05,WNW,303,3.0,0.0,27,-99.99,,,-99.99,meteohub,2013-08-03 09:03:00,
2013-08-03 03:08:00,40.5,31.3,24.05,WNW,297,2.0,5.0,27,-99.99,,,-99.99,meteohub,2013-08-03 09:08:00,
2013-08-03 03:13:00,39.9,31.3,24.05,WNW,300,0.0,5.0,27,-99.99,,,-99.99,meteohub,2013-08-03 09:13:00,
2013-08-03 03:18:00,39.9,31.3,24.05,NW,310,0.0,5.0,27,-99.99,,,-99.99,meteohub,2013-08-03 09:18:00,
2013-08-03 03:24:00,39.9,31.1,24.05,NW,310,0.0,4.0,27,-99.99,,,-99.99,meteohub,2013-08-03 09:24:00,
2013-08-03 03:29:00,40.3,31.1,24.05,NW,310,0.0,4.0,27,-99.99,,,-99.99,meteohub,2013-08-03 09:29:00,
2013-08-03 03:34:00,40.3,30.9,24.05,NW,310,0.0,3.0,27,-99.99,,,-99.99,meteohub,2013-08-03 09:34:00,
2013-08-03 03:39:00,40.5,30.9,24.05,NW,310,0.0,0.0,27,-99.99,,,-99.99,meteohub,2013-08-03 09:39:00,
2013-08-03 03:45:00,40.5,30.9,24.05,NW,310,0.0,0.0,27,-99.99,,,-99.99,meteohub,2013-08-03 09:45:00,
2013-08-03 03:50:00,40.3,30.7,24.05,NW,310,0.0,0.0,27,-99.99,,,-99.99,meteohub,2013-08-03 09:50:00,
2013-08-03 03:55:00,40.3,30.7,24.05,NW,310,0.0,0.0,27,-99.99,,,-99.99,meteohub,2013-08-03 09:55:00,
2013-08-03 04:00:00,40.3,30.7,24.05,NW,310,0.0,0.0,27,-99.99,,,-99.99,meteohub,2013-08-03 10:00:00,
2013-08-03 04:05:00,39.9,30.7,24.05,NW,310,0.0,0.0,27,-99.99,,,-99.99,meteohub,2013-08-03 10:05:00,
2013-08-03 04:11:00,39.9,30.7,24.05,NW,310,0.0,0.0,27,-99.99,,,-99.99,meteohub,2013-08-03 10:11:00,
2013-08-03 04:16:00,39.9,30.6,24.05,NW,310,0.0,0.0,27,-99.99,,,-99.99,meteohub,2013-08-03 10:16:00,
2013-08-03 04:22:00,39.7,30.6,24.05,NW,308,0.0,0.0,27,-99.99,,,-99.99,meteohub,2013-08-03 10:22:00,
2013-08-03 04:27:00,39.6,30.6,24.05,NW,311,3.0,5.0,27,-99.99,,,-99.99,meteohub,2013-08-03 10:27:00,
2013-08-03 04:32:00,39.6,30.4,24.05,NW,305,0.0,5.0,27,-99.99,,,-99.99,meteohub,2013-08-03 10:32:00,
2013-08-03 04:38:00,39.4,30.4,24.05,NW,305,0.0,5.0,27,-99.99,,,-99.99,meteohub,2013-08-03 10:38:00,
2013-08-03 04:43:00,39.4,30.4,24.05,NW,305,0.0,4.0,27,-99.99,,,-99.99,meteohub,2013-08-03 10:43:00,
2013-08-03 04:48:00,39.4,30.4,24.05,NW,305,0.0,4.0,27,-99.99,,,-99.99,meteohub,2013-08-03 10:48:00,
2013-08-03 04:54:00,39.4,30.4,24.05,NW,305,0.0,0.0,27,-99.99,,,-99.99,meteohub,2013-08-03 10:54:00,
2013-08-03 04:59:00,39.6,30.4,24.05,NW,305,0.0,0.0,27,-99.99,,,-99.99,meteohub,2013-08-03 10:59:00,
2013-08-03 05:04:00,39.7,30.2,24.05,NW,305,0.0,0.0,27,-99.99,,,-99.99,meteohub,2013-08-03 11:04:00,
2013-08-03 05:09:00,39.7,30.2,24.05,NW,305,0.0,0.0,27,-99.99,,,-99.99,meteohub,2013-08-03 11:09:00,
2013-08-03 05:14:00,39.6,30.2,24.05,NW,305,0.0,0.0,27,-99.99,,,-99.99,meteohub,2013-08-03 11:14:00,
2013-08-03 05:19:00,39.6,30.0,24.05,NW,305,0.0,0.0,27,-99.99,,,-99.99,meteohub,2013-08-03 11:19:00,
2013-08-03 05:24:00,39.6,30.0,24.05,NW,305,0.0,0.0,27,-99.99,,,-99.99,meteohub,2013-08-03 11:24:00,
2013-08-03 05:29:00,39.6,29.8,24.05,NW,305,0.0,0.0,27,-99.99,,,-99.99,meteohub,2013-08-03 11:29:00,
2013-08-03 05:35:00,39.2,29.8,24.05,NW,305,0.0,0.0,27,-99.99,,,-99.99,meteohub,2013-08-03 11:35:00,
2013-08-03 05:40:00,39.2,29.8,24.05,NW,305,0.0,0.0,27,-99.99,,,-99.99,meteohub,2013-08-03 11:40:00,
2013-08-03 05:45:00,38.7,29.7,24.05,NW,306,2.0,4.0,27,-99.99,,,-99.99,meteohub,2013-08-03 11:45:00,
2013-08-03 05:50:00,38.7,29.7,24.05,NW,306,0.0,4.0,27,-99.99,,,-99.99,meteohub,2013-08-03 11:50:00,
2013-08-03 05:56:00,38.5,30.6,24.05,NW,306,0.0,4.0,28,-99.99,,,-99.99,meteohub,2013-08-03 11:56:00,
2013-08-03 06:01:00,38.1,30.6,24.05,NW,306,0.0,3.0,28,-99.99,,,-99.99,meteohub,2013-08-03 12:01:00,
2013-08-03 06:06:00,38.1,30.4,24.05,NW,304,3.0,4.0,28,-99.99,,,-99.99,meteohub,2013-08-03 12:06:00,
2013-08-03 06:12:00,37.9,30.4,24.05,NW,305,0.0,4.0,28,-99.99,,,-99.99,meteohub,2013-08-03 12:12:00,
2013-08-03 06:17:00,38.1,30.4,24.05,NW,305,0.0,4.0,28,-99.99,,,-99.99,meteohub,2013-08-03 12:17:00,
2013-08-03 06:22:00,37.9,30.2,24.05,NW,305,0.0,4.0,28,-99.99,,,-99.99,meteohub,2013-08-03 12:22:00,
2013-08-03 06:27:00,38.1,30.2,24.05,NW,322,0.0,0.0,28,-99.99,,,-99.99,meteohub,2013-08-03 12:27:00,
2013-08-03 06:32:00,37.9,30.2,24.05,NW,322,0.0,0.0,28,-99.99,,,-99.99,meteohub,2013-08-03 12:32:00,
2013-08-03 06:38:00,37.8,30.2,24.05,NW,312,0.0,3.0,28,-99.99,,,-99.99,meteohub,2013-08-03 12:38:00,
2013-08-03 06:43:00,37.8,30.2,24.05,NW,312,0.0,3.0,28,-99.99,,,-99.99,meteohub,2013-08-03 12:43:00,
2013-08-03 06:48:00,37.8,30.2,24.05,NW,312,0.0,3.0,28,-99.99,,,-99.99,meteohub,2013-08-03 12:48:00,
2013-08-03 06:53:00,37.9,30.2,24.05,NW,311,0.0,0.0,28,-99.99,,,-99.99,meteohub,2013-08-03 12:53:00,
2013-08-03 06:59:00,37.9,30.2,24.05,NW,311,0.0,0.0,28,-99.99,,,-99.99,meteohub,2013-08-03 12:59:00,
2013-08-03 07:04:00,38.1,30.2,24.05,NW,311,0.0,0.0,28,-99.99,,,-99.99,meteohub,2013-08-03 13:04:00,
2013-08-03 07:09:00,38.3,30.2,24.08,NW,311,0.0,0.0,28,-99.99,,,-99.99,meteohub,2013-08-03 13:09:00,
2013-08-03 07:14:00,38.7,30.2,24.08,NW,311,0.0,0.0,28,-99.99,,,-99.99,meteohub,2013-08-03 13:14:00,
2013-08-03 07:19:00,39.0,30.2,24.08,NW,311,0.0,0.0,28,-99.99,,,-99.99,meteohub,2013-08-03 13:19:00,
2013-08-03 07:24:00,39.2,30.2,24.08,NW,311,0.0,0.0,28,-99.99,,,-99.99,meteohub,2013-08-03 13:24:00,
2013-08-03 07:30:00,39.7,30.2,24.08,NW,304,0.0,0.0,28,-99.99,,,-99.99,meteohub,2013-08-03 13:30:00,
2013-08-03 07:35:00,40.3,30.2,24.08,NW,304,0.0,0.0,28,-99.99,,,-99.99,meteohub,2013-08-03 13:35:00,
2013-08-03 07:40:00,40.8,30.2,24.08,NW,304,0.0,0.0,28,-99.99,,,-99.99,meteohub,2013-08-03 13:40:00,
2013-08-03 07:45:00,41.5,30.2,24.08,NW,304,0.0,0.0,28,-99.99,,,-99.99,meteohub,2013-08-03 13:45:00,
2013-08-03 07:50:00,42.4,30.2,24.08,NW,325,0.0,0.0,28,-99.99,,,-99.99,meteohub,2013-08-03 13:50:00,
2013-08-03 07:55:00,43.3,30.2,24.08,NW,325,0.0,0.0,28,-99.99,,,-99.99,meteohub,2013-08-03 13:55:00,
2013-08-03 08:00:00,44.4,30.4,24.08,NW,325,0.0,0.0,28,-99.99,,,-99.99,meteohub,2013-08-03 14:00:00,
2013-08-03 08:06:00,45.5,30.4,24.08,NW,325,0.0,0.0,28,-99.99,,,-99.99,meteohub,2013-08-03 14:06:00,
2013-08-03 08:11:00,46.9,30.4,24.08,WSW,250,0.0,0.0,28,-99.99,,,-99.99,meteohub,2013-08-03 14:11:00,
2013-08-03 08:16:00,48.2,30.4,24.08,WSW,250,0.0,0.0,28,-99.99,,,-99.99,meteohub,2013-08-03 14:16:00,
2013-08-03 08:21:00,48.9,29.7,24.08,WSW,250,0.0,0.0,27,-99.99,,,-99.99,meteohub,2013-08-03 14:21:00,
2013-08-03 08:26:00,49.5,29.7,24.08,WSW,250,0.0,0.0,27,-99.99,,,-99.99,meteohub,2013-08-03 14:26:00,
2013-08-03 08:32:00,50.4,29.7,24.08,WSW,250,0.0,0.0,27,-99.99,,,-99.99,meteohub,2013-08-03 14:32:00,
2013-08-03 08:37:00,51.1,29.7,24.08,WSW,257,0.0,0.0,27,-99.99,,,-99.99,meteohub,2013-08-03 14:37:00,
2013-08-03 08:42:00,52.0,29.8,24.08,WSW,258,0.0,0.0,27,-99.99,,,-99.99,meteohub,2013-08-03 14:42:00,
2013-08-03 08:47:00,52.5,29.8,24.08,WNW,282,0.0,0.0,27,-99.99,,,-99.99,meteohub,2013-08-03 14:47:00,
2013-08-03 08:52:00,53.2,30.0,24.08,WNW,282,0.0,0.0,27,-99.99,,,-99.99,meteohub,2013-08-03 14:52:00,
2013-08-03 08:58:00,54.7,30.0,24.08,WSW,237,0.0,0.0,27,-99.99,,,-99.99,meteohub,2013-08-03 14:58:00,
2013-08-03 09:03:00,55.4,30.2,24.08,NNW,330,0.0,0.0,27,-99.99,,,-99.99,meteohub,2013-08-03 15:03:00,
2013-08-03 09:08:00,56.3,30.2,24.08,NW,320,0.0,0.0,27,-99.99,,,-99.99,meteohub,2013-08-03 15:08:00,
2013-08-03 09:13:00,56.8,30.2,24.08,NW,305,0.0,0.0,27,-99.99,,,-99.99,meteohub,2013-08-03 15:13:00,
2013-08-03 09:19:00,57.9,30.2,24.08,South,175,0.0,0.0,27,-99.99,,,-99.99,meteohub,2013-08-03 15:19:00,
2013-08-03 09:24:00,58.6,30.2,24.08,WNW,285,0.0,0.0,27,-99.99,,,-99.99,meteohub,2013-08-03 15:24:00,
2013-08-03 09:29:00,59.4,30.4,24.08,NNW,341,0.0,4.0,27,-99.99,,,-99.99,meteohub,2013-08-03 15:29:00,
2013-08-03 09:34:00,60.1,30.4,24.08,North,0,0.0,4.0,27,-99.99,,,-99.99,meteohub,2013-08-03 15:34:00,
2013-08-03 09:39:00,61.2,30.4,24.08,NE,56,0.0,4.0,27,-99.99,,,-99.99,meteohub,2013-08-03 15:39:00,
2013-08-03 09:45:00,62.2,30.4,24.08,NNE,29,0.0,3.0,27,-99.99,,,-99.99,meteohub,2013-08-03 15:45:00,
2013-08-03 09:50:00,63.3,30.4,24.08,ENE,64,0.0,0.0,27,-99.99,,,-99.99,meteohub,2013-08-03 15:50:00,
2013-08-03 09:55:00,64.2,30.4,24.08,ENE,64,4.0,0.0,27,-99.99,,,-99.99,meteohub,2013-08-03 15:55:00,
2013-08-03 10:00:00,64.9,30.4,24.08,East,91,4.0,4.0,27,-99.99,,,-99.99,meteohub,2013-08-03 16:00:00,
2013-08-03 10:06:00,65.5,30.4,24.08,East,79,4.0,4.0,27,-99.99,,,-99.99,meteohub,2013-08-03 16:06:00,
2013-08-03 10:11:00,65.8,30.4,24.08,ENE,62,4.0,5.0,27,-99.99,,,-99.99,meteohub,2013-08-03 16:11:00,
2013-08-03 10:17:00,66.4,30.4,24.08,ENE,63,4.0,5.0,27,-99.99,,,-99.99,meteohub,2013-08-03 16:17:00,
2013-08-03 10:21:00,66.6,30.4,24.08,East,83,0.0,5.0,27,-99.99,,,-99.99,meteohub,2013-08-03 16:21:00,
2013-08-03 10:26:00,67.6,30.4,24.08,NE,43,0.0,5.0,27,-99.99,,,-99.99,meteohub,2013-08-03 16:26:00,
2013-08-03 10:32:00,68.5,30.4,24.08,ENE,75,4.0,5.0,27,-99.99,,,-99.99,meteohub,2013-08-03 16:32:00,
2013-08-03 10:37:00,68.9,30.4,24.08,ENE,68,0.0,6.0,27,-99.99,,,-99.99,meteohub,2013-08-03 16:37:00,
2013-08-03 10:42:00,69.4,30.4,24.08,ENE,68,5.0,6.0,27,-99.99,,,-99.99,meteohub,2013-08-03 16:42:00,
2013-08-03 10:47:00,69.8,30.6,24.08,ENE,68,6.0,6.0,27,-99.99,,,-99.99,meteohub,2013-08-03 16:47:00,
2013-08-03 10:52:00,70.5,30.6,24.08,ENE,68,0.0,6.0,27,-99.99,,,-99.99,meteohub,2013-08-03 16:52:00,
2013-08-03 10:57:00,70.7,30.6,24.08,ENE,66,0.0,6.0,27,-99.99,,,-99.99,meteohub,2013-08-03 16:57:00,
2013-08-03 11:02:00,71.8,30.6,24.08,ENE,66,2.0,6.0,27,-99.99,,,-99.99,meteohub,2013-08-03 17:02:00,
2013-08-03 11:08:00,72.1,30.6,24.08,ENE,67,0.0,6.0,27,-99.99,,,-99.99,meteohub,2013-08-03 17:08:00,
2013-08-03 11:13:00,72.9,30.6,24.08,NE,34,0.0,6.0,27,-99.99,,,-99.99,meteohub,2013-08-03 17:13:00,
2013-08-03 11:18:00,73.6,30.6,24.08,ENE,71,3.0,6.0,27,-99.99,,,-99.99,meteohub,2013-08-03 17:18:00,
2013-08-03 11:24:00,73.9,30.6,24.08,North,8,3.0,6.0,27,-99.99,,,-99.99,meteohub,2013-08-03 17:24:00,
2013-08-03 11:29:00,74.1,30.6,24.08,East,82,0.0,6.0,27,-99.99,,,-99.99,meteohub,2013-08-03 17:29:00,
2013-08-03 11:34:00,73.8,30.6,24.08,SSE,151,0.0,6.0,27,-99.99,,,-99.99,meteohub,2013-08-03 17:34:00,
2013-08-03 11:39:00,73.9,30.6,24.08,SE,133,0.0,5.0,27,-99.99,,,-99.99,meteohub,2013-08-03 17:39:00,
2013-08-03 11:44:00,74.1,30.6,24.08,South,179,5.0,6.0,27,-99.99,,,-99.99,meteohub,2013-08-03 17:44:00,
2013-08-03 11:50:00,73.6,30.6,24.08,South,183,0.0,6.0,27,-99.99,,,-99.99,meteohub,2013-08-03 17:50:00,
2013-08-03 11:55:00,73.4,30.7,24.08,West,270,3.0,6.0,27,-99.99,,,-99.99,meteohub,2013-08-03 17:55:00,
2013-08-03 12:00:00,74.8,30.7,24.08,SSE,155,3.0,6.0,27,-99.99,,,-99.99,meteohub,2013-08-03 18:00:00,
2013-08-03 12:05:00,75.2,30.7,24.08,South,175,5.0,6.0,27,-99.99,,,-99.99,meteohub,2013-08-03 18:05:00,
2013-08-03 12:10:00,74.1,30.7,24.08,South,182,3.0,6.0,27,-99.99,,,-99.99,meteohub,2013-08-03 18:10:00,
2013-08-03 12:16:00,74.7,30.7,24.08,South,183,0.0,6.0,27,-99.99,,,-99.99,meteohub,2013-08-03 18:16:00,
2013-08-03 12:21:00,74.8,30.7,24.08,SSE,154,4.0,6.0,27,-99.99,,,-99.99,meteohub,2013-08-03 18:21:00,
2013-08-03 12:27:00,75.2,30.7,24.08,NNW,327,4.0,8.0,27,-99.99,,,-99.99,meteohub,2013-08-03 18:27:00,
2013-08-03 12:31:00,75.9,30.7,24.08,South,180,4.0,8.0,27,-99.99,,,-99.99,meteohub,2013-08-03 18:31:00,
2013-08-03 12:37:00,75.2,30.7,24.08,WSW,254,3.0,6.0,27,-99.99,,,-99.99,meteohub,2013-08-03 18:37:00,
2013-08-03 12:41:00,75.6,30.9,24.08,South,177,4.0,6.0,27,-99.99,,,-99.99,meteohub,2013-08-03 18:41:00,
2013-08-03 12:47:00,75.6,30.9,24.08,SW,220,6.0,8.0,27,-99.99,,,-99.99,meteohub,2013-08-03 18:47:00,
2013-08-03 12:52:00,76.3,30.9,24.08,WSW,251,6.0,8.0,27,-99.99,,,-99.99,meteohub,2013-08-03 18:52:00,
2013-08-03 12:57:00,77.0,30.9,24.08,WSW,244,8.0,11.0,27,-99.99,,,-99.99,meteohub,2013-08-03 18:57:00,
2013-08-03 13:02:00,75.9,30.9,24.08,SSW,213,8.0,11.0,27,-99.99,,,-99.99,meteohub,2013-08-03 19:02:00,
2013-08-03 13:07:00,75.9,31.1,24.08,SSW,199,4.0,13.0,27,-99.99,,,-99.99,meteohub,2013-08-03 19:07:00,
2013-08-03 13:12:00,75.6,31.1,24.08,SW,231,8.0,13.0,27,-99.99,,,-99.99,meteohub,2013-08-03 19:12:00,
2013-08-03 13:14:00,75.4,31.1,24.08,SSW,209,11.0,13.0,27,-99.99,,,-99.99,meteohub,2013-08-03 19:14:00,
2013-08-03 13:19:00,75.4,31.1,24.08,SW,217,12.0,13.0,27,-99.99,,,-99.99,meteohub,2013-08-03 19:19:00,
2013-08-03 13:24:00,75.7,31.1,24.08,WSW,241,11.0,13.0,27,-99.99,,,-99.99,meteohub,2013-08-03 19:24:00,
2013-08-03 13:29:00,75.7,31.1,24.08,SW,218,15.0,15.0,27,-99.99,,,-99.99,meteohub,2013-08-03 19:29:00,
2013-08-03 13:35:00,75.4,31.1,24.08,West,259,9.0,14.0,27,-99.99,,,-99.99,meteohub,2013-08-03 19:35:00,
2013-08-03 13:40:00,77.0,30.4,24.08,SW,227,7.0,15.0,26,-99.99,,,-99.99,meteohub,2013-08-03 19:40:00,
2013-08-03 13:45:00,77.0,30.4,24.08,SW,217,10.0,15.0,26,-99.99,,,-99.99,meteohub,2013-08-03 19:45:00,
2013-08-03 13:51:00,76.3,30.4,24.08,SSW,197,8.0,13.0,26,-99.99,,,-99.99,meteohub,2013-08-03 19:51:00,
2013-08-03 13:56:00,75.4,30.4,24.08,SSW,209,11.0,13.0,26,-99.99,,,-99.99,meteohub,2013-08-03 19:56:00,
2013-08-03 14:01:00,76.3,30.4,24.08,SW,216,8.0,15.0,26,-99.99,,,-99.99,meteohub,2013-08-03 20:01:00,
2013-08-03 14:07:00,75.7,30.4,24.08,SSW,200,9.0,15.0,26,-99.99,,,-99.99,meteohub,2013-08-03 20:07:00,
2013-08-03 14:11:00,75.9,30.4,24.08,WSW,240,6.0,15.0,26,-99.99,,,-99.99,meteohub,2013-08-03 20:11:00,
2013-08-03 14:17:00,76.5,30.4,24.08,SSE,160,4.0,16.0,26,-99.99,,,-99.99,meteohub,2013-08-03 20:17:00,
2013-08-03 14:22:00,76.5,30.4,24.08,South,187,8.0,16.0,26,-99.99,,,-99.99,meteohub,2013-08-03 20:22:00,
2013-08-03 14:27:00,75.9,30.4,24.08,SSW,210,6.0,16.0,26,-99.99,,,-99.99,meteohub,2013-08-03 20:27:00,
2013-08-03 14:32:00,77.2,30.4,24.08,SSE,161,6.0,13.0,26,-99.99,,,-99.99,meteohub,2013-08-03 20:32:00,
2013-08-03 14:38:00,77.0,30.6,24.08,SSW,200,6.0,13.0,26,-99.99,,,-99.99,meteohub,2013-08-03 20:38:00,
2013-08-03 14:43:00,76.6,30.6,24.08,South,178,8.0,13.0,26,-99.99,,,-99.99,meteohub,2013-08-03 20:43:00,
2013-08-03 14:48:00,76.6,30.6,24.08,South,176,8.0,13.0,26,-99.99,,,-99.99,meteohub,2013-08-03 20:48:00,
2013-08-03 14:53:00,76.8,30.6,24.08,South,190,5.0,15.0,26,-99.99,,,-99.99,meteohub,2013-08-03 20:53:00,
2013-08-03 14:58:00,76.8,30.7,24.08,SSW,212,6.0,15.0,26,-99.99,,,-99.99,meteohub,2013-08-03 20:58:00,
2013-08-03 15:03:00,76.8,30.7,24.08,South,188,4.0,15.0,26,-99.99,,,-99.99,meteohub,2013-08-03 21:03:00,
2013-08-03 15:08:00,76.6,30.7,24.08,SW,236,5.0,11.0,26,-99.99,,,-99.99,meteohub,2013-08-03 21:08:00,
2013-08-03 15:14:00,77.2,30.7,24.08,SE,145,8.0,11.0,26,-99.99,,,-99.99,meteohub,2013-08-03 21:14:00,
2013-08-03 15:19:00,77.2,30.7,24.08,WSW,257,14.0,14.0,26,-99.99,,,-99.99,meteohub,2013-08-03 21:19:00,
2013-08-03 15:24:00,76.6,30.7,24.08,SW,228,14.0,15.0,26,-99.99,,,-99.99,meteohub,2013-08-03 21:24:00,
2013-08-03 15:29:00,77.0,30.7,24.08,SW,223,13.0,15.0,26,-99.99,,,-99.99,meteohub,2013-08-03 21:29:00,
2013-08-03 15:34:00,77.5,30.7,24.08,SSW,210,6.0,15.0,26,-99.99,,,-99.99,meteohub,2013-08-03 21:34:00,
2013-08-03 15:40:00,78.6,30.9,24.08,SW,222,8.0,15.0,26,-99.99,,,-99.99,meteohub,2013-08-03 21:40:00,
2013-08-03 15:45:00,78.3,30.9,24.08,South,182,6.0,13.0,26,-99.99,,,-99.99,meteohub,2013-08-03 21:45:00,
2013-08-03 15:50:00,78.6,30.0,24.08,SSW,199,6.0,13.0,25,-99.99,,,-99.99,meteohub,2013-08-03 21:50:00,
2013-08-03 15:55:00,78.3,30.0,24.08,SSW,197,8.0,15.0,25,-99.99,,,-99.99,meteohub,2013-08-03 21:55:00,
2013-08-03 16:00:00,78.4,30.0,24.08,South,171,11.0,15.0,25,-99.99,,,-99.99,meteohub,2013-08-03 22:00:00,
2013-08-03 16:05:00,78.6,30.0,24.08,SSW,199,8.0,19.0,25,-99.99,,,-99.99,meteohub,2013-08-03 22:05:00,
2013-08-03 16:11:00,78.3,30.0,24.08,SSE,164,6.0,19.0,25,-99.99,,,-99.99,meteohub,2013-08-03 22:11:00,
2013-08-03 16:16:00,78.3,30.0,24.08,SW,221,8.0,19.0,25,-99.99,,,-99.99,meteohub,2013-08-03 22:16:00,
2013-08-03 16:21:00,78.6,30.0,24.08,SSW,195,8.0,16.0,25,-99.99,,,-99.99,meteohub,2013-08-03 22:21:00,
2013-08-03 16:26:00,77.5,30.0,24.08,WSW,248,9.0,16.0,25,-99.99,,,-99.99,meteohub,2013-08-03 22:26:00,
2013-08-03 16:31:00,78.3,30.2,24.08,SSW,204,8.0,15.0,25,-99.99,,,-99.99,meteohub,2013-08-03 22:31:00,
2013-08-03 16:37:00,78.4,30.2,24.05,SSW,192,9.0,15.0,25,-99.99,,,-99.99,meteohub,2013-08-03 22:37:00,
2013-08-03 16:42:00,77.9,30.2,24.05,South,170,11.0,15.0,25,-99.99,,,-99.99,meteohub,2013-08-03 22:42:00,
2013-08-03 16:47:00,77.5,30.4,24.05,SW,223,11.0,15.0,25,-99.99,,,-99.99,meteohub,2013-08-03 22:47:00,
2013-08-03 16:52:00,77.9,30.4,24.05,SW,227,15.0,15.0,25,-99.99,,,-99.99,meteohub,2013-08-03 22:52:00,
2013-08-03 16:57:00,78.4,30.4,24.05,SSW,208,11.0,17.0,25,-99.99,,,-99.99,meteohub,2013-08-03 22:57:00,
2013-08-03 17:02:00,77.9,30.4,24.05,SSW,212,8.0,17.0,25,-99.99,,,-99.99,meteohub,2013-08-03 23:02:00,
2013-08-03 17:07:00,77.9,30.4,24.08,SSW,203,11.0,15.0,25,-99.99,,,-99.99,meteohub,2013-08-03 23:07:00,
2013-08-03 17:13:00,77.5,30.6,24.08,SW,222,11.0,20.0,25,-99.99,,,-99.99,meteohub,2013-08-03 23:13:00,
2013-08-03 17:18:00,77.2,30.6,24.08,South,173,6.0,20.0,25,-99.99,,,-99.99,meteohub,2013-08-03 23:18:00,
2013-08-03 17:23:00,77.2,30.6,24.08,SW,224,8.0,20.0,25,-99.99,,,-99.99,meteohub,2013-08-03 23:23:00,
2013-08-03 17:28:00,77.7,30.6,24.08,SSW,207,8.0,12.0,25,-99.99,,,-99.99,meteohub,2013-08-03 23:28:00,
2013-08-03 17:34:00,78.1,30.6,24.08,South,170,8.0,11.0,25,-99.99,,,-99.99,meteohub,2013-08-03 23:34:00,
2013-08-03 17:39:00,78.1,30.7,24.05,SSW,212,10.0,15.0,25,-99.99,,,-99.99,meteohub,2013-08-03 23:39:00,
2013-08-03 17:44:00,77.7,30.7,24.05,WSW,243,9.0,15.0,25,-99.99,,,-99.99,meteohub,2013-08-03 23:44:00,
2013-08-03 17:49:00,78.3,30.7,24.05,SW,218,13.0,14.0,25,-99.99,,,-99.99,meteohub,2013-08-03 23:49:00,
2013-08-03 17:54:00,78.1,29.8,24.05,SSW,193,5.0,15.0,24,-99.99,,,-99.99,meteohub,2013-08-03 23:54:00,
2013-08-03 17:59:00,77.4,29.8,24.05,SSW,193,9.0,15.0,24,-99.99,,,-99.99,meteohub,2013-08-03 23:59:00,
2013-08-03 18:05:00,77.4,29.8,24.05,SSW,209,8.0,15.0,24,-99.99,,,-99.99,meteohub,2013-08-04 00:05:00,
2013-08-03 18:10:00,76.8,29.8,24.05,SW,233,6.0,12.0,24,-99.99,,,-99.99,meteohub,2013-08-04 00:10:00,
2013-08-03 18:15:00,77.2,29.8,24.05,SSW,210,6.0,14.0,24,-99.99,,,-99.99,meteohub,2013-08-04 00:15:00,
2013-08-03 18:21:00,77.5,29.8,24.05,SSW,193,8.0,14.0,24,-99.99,,,-99.99,meteohub,2013-08-04 00:21:00,
2013-08-03 18:26:00,77.2,29.8,24.05,SW,230,10.0,11.0,24,-99.99,,,-99.99,meteohub,2013-08-04 00:26:00,
2013-08-03 18:31:00,76.6,30.0,24.05,SSW,204,8.0,13.0,24,-99.99,,,-99.99,meteohub,2013-08-04 00:31:00,
2013-08-03 18:36:00,76.6,30.0,24.05,SW,231,6.0,13.0,24,-99.99,,,-99.99,meteohub,2013-08-04 00:36:00,
2013-08-03 18:41:00,76.5,30.0,24.05,SW,229,10.0,13.0,24,-99.99,,,-99.99,meteohub,2013-08-04 00:41:00,
2013-08-03 18:47:00,76.3,30.2,24.05,SW,220,11.0,13.0,24,-99.99,,,-99.99,meteohub,2013-08-04 00:47:00,
2013-08-03 18:52:00,76.1,30.2,24.05,SSW,197,5.0,14.0,24,-99.99,,,-99.99,meteohub,2013-08-04 00:52:00,
2013-08-03 18:56:00,76.1,30.2,24.05,SW,220,5.0,14.0,24,-99.99,,,-99.99,meteohub,2013-08-04 00:56:00,
2013-08-03 19:02:00,75.9,30.2,24.05,SW,216,8.0,14.0,24,-99.99,,,-99.99,meteohub,2013-08-04 01:02:00,
2013-08-03 19:07:00,75.9,30.2,24.05,South,173,4.0,11.0,24,-99.99,,,-99.99,meteohub,2013-08-04 01:07:00,
2013-08-03 19:11:00,75.6,30.2,24.05,SSW,212,4.0,11.0,24,-99.99,,,-99.99,meteohub,2013-08-04 01:11:00,
2013-08-03 19:17:00,75.4,30.2,24.05,South,175,5.0,11.0,24,-99.99,,,-99.99,meteohub,2013-08-04 01:17:00,
2013-08-03 19:22:00,75.0,30.2,24.05,South,172,6.0,8.0,24,-99.99,,,-99.99,meteohub,2013-08-04 01:22:00,
2013-08-03 19:27:00,74.7,30.2,24.05,South,172,5.0,8.0,24,-99.99,,,-99.99,meteohub,2013-08-04 01:27:00,
2013-08-03 19:32:00,74.5,30.4,24.05,SSE,157,8.0,8.0,24,-99.99,,,-99.99,meteohub,2013-08-04 01:32:00,
2013-08-03 19:37:00,74.5,30.4,24.05,South,170,5.0,10.0,24,-99.99,,,-99.99,meteohub,2013-08-04 01:37:00,
2013-08-03 19:43:00,74.1,30.4,24.05,South,179,4.0,10.0,24,-99.99,,,-99.99,meteohub,2013-08-04 01:43:00,
2013-08-03 19:48:00,73.6,30.4,24.05,South,181,5.0,10.0,24,-99.99,,,-99.99,meteohub,2013-08-04 01:48:00,
2013-08-03 19:53:00,73.2,30.4,24.05,SSW,193,4.0,8.0,24,-99.99,,,-99.99,meteohub,2013-08-04 01:53:00,
2013-08-03 19:59:00,72.7,30.4,24.05,SSE,150,5.0,8.0,24,-99.99,,,-99.99,meteohub,2013-08-04 01:59:00,
2013-08-03 20:04:00,72.1,30.4,24.05,South,169,3.0,8.0,24,-99.99,,,-99.99,meteohub,2013-08-04 02:04:00,
2013-08-03 20:09:00,72.0,30.4,24.05,South,169,5.0,6.0,24,-99.99,,,-99.99,meteohub,2013-08-04 02:09:00,
2013-08-03 20:14:00,71.6,30.4,24.05,South,170,4.0,6.0,24,-99.99,,,-99.99,meteohub,2013-08-04 02:14:00,
2013-08-03 20:20:00,71.2,30.4,24.05,South,175,3.0,6.0,24,-99.99,,,-99.99,meteohub,2013-08-04 02:20:00,
2013-08-03 20:25:00,70.9,30.4,24.05,South,175,3.0,6.0,24,-99.99,,,-99.99,meteohub,2013-08-04 02:25:00,
2013-08-03 20:30:00,70.0,30.4,24.05,South,175,4.0,6.0,24,-99.99,,,-99.99,meteohub,2013-08-04 02:30:00,
2013-08-03 20:35:00,69.4,30.4,24.05,South,175,3.0,6.0,24,-99.99,,,-99.99,meteohub,2013-08-04 02:35:00,
2013-08-03 20:41:00,68.7,30.4,24.05,South,175,4.0,5.0,24,-99.99,,,-99.99,meteohub,2013-08-04 02:41:00,
2013-08-03 20:46:00,68.4,30.4,24.05,South,175,4.0,5.0,24,-99.99,,,-99.99,meteohub,2013-08-04 02:46:00,
2013-08-03 20:51:00,68.2,31.5,24.05,South,176,3.0,5.0,25,-99.99,,,-99.99,meteohub,2013-08-04 02:51:00,
2013-08-03 20:56:00,68.0,30.4,24.05,South,176,3.0,5.0,24,-99.99,,,-99.99,meteohub,2013-08-04 02:56:00,
2013-08-03 21:01:00,67.6,30.4,24.05,South,176,3.0,6.0,24,-99.99,,,-99.99,meteohub,2013-08-04 03:01:00,
2013-08-03 21:06:00,66.9,30.4,24.05,South,176,0.0,6.0,24,-99.99,,,-99.99,meteohub,2013-08-04 03:06:00,
2013-08-03 21:11:00,66.0,31.5,24.05,South,176,0.0,4.0,25,-99.99,,,-99.99,meteohub,2013-08-04 03:11:00,
2013-08-03 21:17:00,65.7,31.5,24.05,South,176,0.0,3.0,25,-99.99,,,-99.99,meteohub,2013-08-04 03:17:00,
2013-08-03 21:22:00,65.3,31.3,24.08,South,176,0.0,0.0,25,-99.99,,,-99.99,meteohub,2013-08-04 03:22:00,
2013-08-03 21:27:00,64.8,31.3,24.08,NW,314,0.0,0.0,25,-99.99,,,-99.99,meteohub,2013-08-04 03:27:00,
2013-08-03 21:32:00,63.9,31.3,24.08,NW,314,0.0,0.0,25,-99.99,,,-99.99,meteohub,2013-08-04 03:32:00,
2013-08-03 21:37:00,63.0,31.3,24.08,NW,314,0.0,0.0,25,-99.99,,,-99.99,meteohub,2013-08-04 03:37:00,
2013-08-03 21:42:00,62.2,31.3,24.08,NW,306,0.0,0.0,25,-99.99,,,-99.99,meteohub,2013-08-04 03:42:00,
2013-08-03 21:48:00,61.7,31.3,24.08,WNW,292,0.0,0.0,25,-99.99,,,-99.99,meteohub,2013-08-04 03:48:00,
2013-08-03 21:53:00,61.7,31.3,24.08,NW,318,5.0,0.0,25,-99.99,,,-99.99,meteohub,2013-08-04 03:53:00,
2013-08-03 21:58:00,60.8,31.3,24.08,NW,323,0.0,5.0,25,-99.99,,,-99.99,meteohub,2013-08-04 03:58:00,
2013-08-03 22:01:00,60.6,31.3,24.08,WNW,303,4.0,5.0,25,-99.99,,,-99.99,meteohub,2013-08-04 04:01:00,
2013-08-03 22:02:00,60.6,31.3,24.08,WNW,298,3.0,5.0,25,-99.99,,,-99.99,meteohub,2013-08-04 04:02:00,
2013-08-03 22:06:00,60.4,31.3,24.08,NW,321,0.0,5.0,25,-99.99,,,-99.99,meteohub,2013-08-04 04:06:00,
2013-08-03 22:11:00,59.9,31.3,24.08,NW,322,0.0,5.0,25,-99.99,,,-99.99,meteohub,2013-08-04 04:11:00,
2013-08-03 22:17:00,59.0,31.1,24.08,ENE,78,0.0,5.0,25,-99.99,,,-99.99,meteohub,2013-08-04 04:17:00,
2013-08-03 22:22:00,58.1,31.1,24.08,NW,305,0.0,5.0,25,-99.99,,,-99.99,meteohub,2013-08-04 04:22:00,
2013-08-03 22:27:00,58.1,31.1,24.08,NNW,330,0.0,4.0,25,-99.99,,,-99.99,meteohub,2013-08-04 04:27:00,
2013-08-03 22:32:00,57.9,31.1,24.08,NNW,330,0.0,4.0,25,-99.99,,,-99.99,meteohub,2013-08-04 04:32:00,
2013-08-03 22:37:00,57.2,31.1,24.08,NW,313,0.0,4.0,25,-99.99,,,-99.99,meteohub,2013-08-04 04:37:00,
2013-08-03 22:43:00,56.8,31.1,24.08,NW,320,0.0,5.0,25,-99.99,,,-99.99,meteohub,2013-08-04 04:43:00,
2013-08-03 22:48:00,56.5,31.1,24.08,NW,325,0.0,5.0,25,-99.99,,,-99.99,meteohub,2013-08-04 04:48:00,
2013-08-03 22:53:00,55.9,31.1,24.08,NW,320,0.0,5.0,25,-99.99,,,-99.99,meteohub,2013-08-04 04:53:00,
2013-08-03 22:58:00,55.8,31.1,24.08,NW,320,0.0,4.0,25,-99.99,,,-99.99,meteohub,2013-08-04 04:58:00,
2013-08-03 23:03:00,55.0,31.1,24.08,NW,320,0.0,4.0,25,-99.99,,,-99.99,meteohub,2013-08-04 05:03:00,
2013-08-03 23:09:00,54.9,31.1,24.08,NW,309,0.0,4.0,25,-99.99,,,-99.99,meteohub,2013-08-04 05:09:00,
2013-08-03 23:14:00,54.5,31.1,24.08,NW,314,0.0,0.0,25,-99.99,,,-99.99,meteohub,2013-08-04 05:14:00,
2013-08-03 23:19:00,54.1,30.9,24.08,North,353,0.0,0.0,25,-99.99,,,-99.99,meteohub,2013-08-04 05:19:00,
2013-08-03 23:25:00,54.0,30.9,24.08,North,353,0.0,0.0,25,-99.99,,,-99.99,meteohub,2013-08-04 05:25:00,
2013-08-03 23:30:00,53.4,30.9,24.08,North,353,0.0,0.0,25,-99.99,,,-99.99,meteohub,2013-08-04 05:30:00,
2013-08-03 23:35:00,53.4,30.9,24.08,North,353,0.0,0.0,25,-99.99,,,-99.99,meteohub,2013-08-04 05:35:00,
2013-08-03 23:41:00,53.2,30.9,24.08,North,353,0.0,0.0,25,-99.99,,,-99.99,meteohub,2013-08-04 05:41:00,
2013-08-03 23:46:00,52.9,31.6,24.08,WNW,298,0.0,0.0,26,-99.99,,,-99.99,meteohub,2013-08-04 05:46:00,
2013-08-03 23:51:00,52.9,31.6,24.08,WNW,298,0.0,0.0,26,-99.99,,,-99.99,meteohub,2013-08-04 05:51:00,
2013-08-03 23:56:00,53.1,31.6,24.08,WNW,298,0.0,0.0,26,-99.99,,,-99.99,meteohub,2013-08-04 05:56:00,